Radiation Dose at Monitoring Post of Fukushima Daini Nuclear Power Station
Date,Time,MP-1(microSv/h),MP-2(microSv/h),MP-3(microSv/h),MP-4(microSv/h),MP-5(microSv/h),MP-6(microSv/h),MP-7(microSv/h),Wind Direction,Wind Velocity(m/s),Rain
2016/08/05,00:00,0.416,0.248,0.430,0.396,0.371,0.202,0.172,south-southwest,1.6,No
2016/08/05,00:10,0.421,0.246,0.435,0.394,0.369,0.204,0.175,south,0.9,No
2016/08/05,00:20,0.417,0.245,0.436,0.395,0.373,0.203,0.174,-,CALM,No
2016/08/05,00:30,0.415,0.250,0.433,0.398,0.373,0.203,0.173,-,CALM,No
2016/08/05,00:40,0.421,0.246,0.434,0.395,0.370,0.204,0.174,north-northwest,0.6,No
2016/08/05,00:50,0.419,0.245,0.437,0.393,0.371,0.204,0.174,south,1.1,No
2016/08/05,01:00,0.416,0.248,0.434,0.401,0.374,0.203,0.173,south,1.3,No
2016/08/05,01:10,0.418,0.247,0.430,0.398,0.373,0.204,0.174,south,1.6,No
2016/08/05,01:20,0.421,0.245,0.435,0.394,0.371,0.203,0.173,south-southwest,1.9,No
2016/08/05,01:30,0.418,0.246,0.436,0.398,0.375,0.204,0.174,south-southwest,2.8,No
2016/08/05,01:40,0.416,0.247,0.429,0.399,0.373,0.203,0.173,south-southwest,2.1,No
2016/08/05,01:50,0.421,0.245,0.433,0.393,0.369,0.204,0.174,south-southwest,1.8,No
2016/08/05,02:00,0.419,0.248,0.436,0.397,0.372,0.202,0.174,west-southwest,1.7,No
2016/08/05,02:10,0.414,0.247,0.432,0.399,0.374,0.203,0.172,-,CALM,No
2016/08/05,02:20,0.421,0.246,0.432,0.395,0.372,0.204,0.175,-,CALM,No
2016/08/05,02:30,0.420,0.247,0.436,0.396,0.368,0.202,0.173,west-northwest,1.0,No
2016/08/05,02:40,0.416,0.247,0.434,0.400,0.375,0.203,0.173,north,1.7,No
2016/08/05,02:50,0.419,0.246,0.429,0.394,0.373,0.204,0.175,north-northwest,2.2,No
2016/08/05,03:00,0.420,0.248,0.436,0.397,0.370,0.202,0.175,north-northwest,1.3,No
2016/08/05,03:10,0.417,0.248,0.434,0.399,0.373,0.204,0.172,north-northwest,1.7,No
2016/08/05,03:20,0.418,0.245,0.431,0.396,0.375,0.203,0.174,north-northwest,3.1,No
2016/08/05,03:30,0.421,0.247,0.435,0.396,0.371,0.203,0.174,north-northwest,3.3,No
2016/08/05,03:40,0.417,0.247,0.435,0.398,0.371,0.205,0.173,north-northwest,3.8,No
2016/08/05,03:50,0.416,0.246,0.432,0.395,0.374,0.203,0.175,north,4.1,No
2016/08/05,04:00,0.422,0.247,0.433,0.394,0.371,0.203,0.174,north,3.2,No
2016/08/05,04:10,0.419,0.247,0.436,0.399,0.371,0.204,0.173,north,4.0,No
2016/08/05,04:20,0.416,0.245,0.432,0.396,0.374,0.203,0.174,north,2.7,No
2016/08/05,04:30,0.421,0.246,0.430,0.395,0.372,0.203,0.174,north-northeast,2.0,No
2016/08/05,04:40,0.419,0.248,0.436,0.398,0.369,0.204,0.174,north-northeast,1.2,No
2016/08/05,04:50,0.416,0.245,0.434,0.396,0.375,0.204,0.174,-,CALM,No
2016/08/05,05:00,0.418,0.246,0.430,0.393,0.372,0.204,0.174,-,CALM,No
2016/08/05,05:10,0.419,0.248,0.435,0.398,0.369,0.203,0.172,south,1.0,No
2016/08/05,05:20,0.416,0.246,0.435,0.397,0.373,0.203,0.174,south,0.9,No
2016/08/05,05:30,0.420,0.247,0.430,0.395,0.373,0.203,0.174,northeast,1.3,No
2016/08/05,05:40,0.420,0.247,0.435,0.399,0.371,0.204,0.173,south,1.1,No
2016/08/05,05:50,0.417,0.246,0.433,0.396,0.368,0.203,0.173,south-southeast,1.5,No
2016/08/05,06:00,0.416,0.245,0.432,0.394,0.373,0.204,0.174,southeast,1.3,No
2016/08/05,06:10,0.422,0.247,0.433,0.397,0.374,0.204,0.175,east-southeast,0.8,No
2016/08/05,06:20,-,-,-,-,-,-,-,-,-,-
2016/08/05,06:30,0.416,0.246,0.434,0.397,0.371,0.204,0.174,northeast,2.2,No
2016/08/05,06:40,0.421,0.244,0.429,0.393,0.369,0.205,0.174,north-northeast,1.3,No
2016/08/05,06:50,0.421,0.246,0.434,0.398,0.372,0.205,0.173,north,0.6,No
2016/08/05,07:00,0.418,0.248,0.437,0.400,0.374,0.204,0.173,-,CALM,No
2016/08/05,07:10,0.416,0.247,0.434,0.397,0.375,0.203,0.174,north-northeast,0.7,No
2016/08/05,07:20,0.416,0.246,0.431,0.396,0.371,0.205,0.175,east-northeast,1.5,No
2016/08/05,07:30,0.421,0.246,0.431,0.393,0.371,0.204,0.174,north,1.3,No
2016/08/05,07:40,0.421,0.246,0.431,0.393,0.369,0.203,0.176,east-northeast,1.7,No
2016/08/05,07:50,0.419,0.246,0.429,0.394,0.370,0.204,0.175,northeast,2.1,No
2016/08/05,08:00,0.417,0.246,0.428,0.393,0.370,0.204,0.175,east-northeast,2.5,No
2016/08/05,08:10,0.416,0.246,0.431,0.395,0.369,0.204,0.175,northeast,3.1,No
2016/08/05,08:20,0.416,0.247,0.429,0.393,0.370,0.204,0.175,east-northeast,2.5,No
2016/08/05,08:30,0.416,0.248,0.430,0.396,0.371,0.205,0.175,east-northeast,2.8,No
2016/08/05,08:40,0.416,0.247,0.429,0.396,0.371,0.205,0.175,east,2.5,No
2016/08/05,08:50,0.418,0.246,0.430,0.398,0.370,0.204,0.176,east-northeast,2.5,No
2016/08/05,09:00,0.418,0.248,0.439,0.397,0.373,0.204,0.175,east-northeast,2.5,No
2016/08/05,09:10,0.419,0.246,0.439,0.397,0.372,0.205,0.176,east,1.9,No
2016/08/05,09:20,0.418,0.246,0.435,0.399,0.373,0.206,0.176,east-northeast,2.7,No
2016/08/05,09:30,0.419,0.247,0.433,0.399,0.374,0.203,0.176,east,2.5,No
2016/08/05,09:40,0.421,0.248,0.433,0.401,0.374,0.204,0.176,east-southeast,1.8,No
2016/08/05,09:50,0.419,0.247,0.431,0.401,0.372,0.205,0.176,east-southeast,2.6,No
2016/08/05,10:00,0.422,0.248,0.432,0.401,0.374,0.205,0.177,southeast,2.9,No
2016/08/05,10:10,0.423,0.248,0.433,0.399,0.372,0.205,0.176,southeast,3.0,No
2016/08/05,10:20,0.419,0.248,0.432,0.400,0.373,0.205,0.176,southeast,3.0,No
2016/08/05,10:30,0.421,0.248,0.433,0.401,0.372,0.205,0.176,south-southeast,3.4,No
2016/08/05,10:40,0.423,0.248,0.433,0.401,0.369,0.205,0.176,south-southeast,3.0,No
2016/08/05,10:50,0.423,0.247,0.434,0.399,0.370,0.206,0.176,south-southeast,3.3,No
2016/08/05,11:00,0.423,0.248,0.436,0.399,0.374,0.205,0.176,south-southeast,3.7,No
2016/08/05,11:10,0.425,0.247,0.437,0.401,0.374,0.205,0.177,south-southeast,4.2,No
2016/08/05,11:20,0.424,0.246,0.438,0.400,0.374,0.206,0.176,south,4.1,No
2016/08/05,11:30,0.424,0.247,0.437,0.400,0.374,0.206,0.176,south,5.0,No
2016/08/05,11:40,0.424,0.248,0.438,0.400,0.374,0.205,0.176,south,5.6,No
2016/08/05,11:50,0.424,0.249,0.438,0.400,0.374,0.205,0.175,south,6.4,No
2016/08/05,12:00,0.421,0.248,0.438,0.400,0.372,0.205,0.175,south,6.4,No
2016/08/05,12:10,0.420,0.249,0.438,0.400,0.372,0.206,0.176,south,7.1,No
2016/08/05,12:20,0.420,0.248,0.438,0.400,0.372,0.205,0.175,south,7.3,No
2016/08/05,12:30,0.420,0.248,0.439,0.400,0.373,0.205,0.176,south,8.1,No
2016/08/05,12:40,0.420,0.250,0.439,0.401,0.373,0.206,0.175,south,7.4,No
2016/08/05,12:50,0.421,0.248,0.437,0.401,0.373,0.206,0.176,south,7.4,No
2016/08/05,13:00,0.421,0.248,0.436,0.399,0.372,0.205,0.176,south,8.9,No
2016/08/05,13:10,0.420,0.248,0.434,0.400,0.373,0.205,0.175,south,9.7,No
2016/08/05,13:20,0.419,0.249,0.436,0.399,0.372,0.205,0.175,south,9.4,No
2016/08/05,13:30,0.419,0.246,0.434,0.398,0.370,0.205,0.176,south,11.2,No
2016/08/05,13:40,0.419,0.246,0.435,0.399,0.367,0.204,0.175,south,11.2,No
2016/08/05,13:50,0.420,0.247,0.437,0.400,0.366,0.206,0.175,south,10.3,No
2016/08/05,14:00,0.420,0.247,0.438,0.400,0.366,0.205,0.175,south,10.9,No
2016/08/05,14:10,0.421,0.248,0.437,0.400,0.370,0.205,0.175,south,11.3,No
2016/08/05,14:20,0.422,0.249,0.437,0.400,0.371,0.205,0.175,south,11.6,No
2016/08/05,14:30,0.422,0.249,0.436,0.399,0.371,0.205,0.174,south,10.0,No
2016/08/05,14:40,0.422,0.248,0.436,0.398,0.371,0.205,0.175,south,9.8,No
2016/08/05,14:50,0.423,0.247,0.437,0.399,0.373,0.205,0.175,south,9.2,No
2016/08/05,15:00,0.419,0.249,0.435,0.397,0.372,0.206,0.175,south,9.3,No
2016/08/05,15:10,0.420,0.248,0.434,0.397,0.371,0.205,0.174,south,9.2,No
2016/08/05,15:20,0.418,0.246,0.434,0.396,0.371,0.205,0.173,south,9.8,No
2016/08/05,15:30,0.419,0.248,0.435,0.394,0.367,0.204,0.174,south,9.9,No
2016/08/05,15:40,0.417,0.247,0.434,0.397,0.372,0.205,0.173,south,9.6,No
2016/08/05,15:50,0.419,0.248,0.433,0.396,0.372,0.204,0.173,south,9.5,No
2016/08/05,16:00,0.419,0.247,0.433,0.395,0.372,0.205,0.173,south,10.0,No
2016/08/05,16:10,0.418,0.246,0.431,0.395,0.371,0.204,0.174,south,10.0,No
2016/08/05,16:20,0.419,0.246,0.432,0.397,0.370,0.204,0.173,south,10.0,No
2016/08/05,16:30,0.419,0.246,0.433,0.397,0.369,0.205,0.174,south,11.2,No
2016/08/05,16:40,0.418,0.247,0.434,0.397,0.371,0.205,0.173,south,10.5,No
2016/08/05,16:50,0.419,0.247,0.433,0.396,0.371,0.204,0.173,south,9.2,No
2016/08/05,17:00,0.419,0.247,0.434,0.396,0.371,0.204,0.173,south,10.1,No
2016/08/05,17:10,0.420,0.246,0.434,0.396,0.369,0.204,0.172,south,9.3,No
2016/08/05,17:20,0.419,0.247,0.436,0.396,0.371,0.203,0.172,south,9.3,No
2016/08/05,17:30,0.419,0.248,0.434,0.397,0.370,0.204,0.175,south,9.5,No
2016/08/05,17:40,0.418,0.246,0.433,0.396,0.369,0.203,0.175,south,9.4,No
2016/08/05,17:50,0.419,0.246,0.432,0.396,0.370,0.204,0.175,south-southwest,9.4,No
2016/08/05,18:00,0.418,0.246,0.432,0.402,0.369,0.203,0.174,south-southwest,10.0,No
2016/08/05,18:10,0.416,0.246,0.432,0.403,0.370,0.206,0.173,south-southwest,9.4,No
2016/08/05,18:20,0.418,0.247,0.433,0.402,0.370,0.205,0.173,south,9.8,No
2016/08/05,18:30,0.420,0.247,0.440,0.397,0.369,0.204,0.174,south,9.9,No
2016/08/05,18:40,0.424,0.250,0.440,0.397,0.369,0.205,0.175,south-southwest,9.7,No
2016/08/05,18:50,0.423,0.249,0.439,0.397,0.370,0.205,0.176,south-southwest,10.4,No
2016/08/05,19:00,0.421,0.247,0.435,0.398,0.372,0.206,0.175,south-southwest,8.8,No
2016/08/05,19:10,0.419,0.246,0.434,0.402,0.375,0.203,0.174,south-southwest,8.5,No
2016/08/05,19:20,0.417,0.246,0.434,0.403,0.375,0.204,0.173,south,8.1,No
2016/08/05,19:30,0.420,0.248,0.432,0.401,0.372,0.204,0.174,south-southwest,8.3,No
2016/08/05,19:40,0.425,0.248,0.436,0.399,0.372,0.203,0.176,south-southwest,7.8,No
2016/08/05,19:50,0.424,0.247,0.440,0.397,0.370,0.205,0.175,south-southwest,7.5,No
2016/08/05,20:00,0.421,0.247,0.438,0.395,0.369,0.205,0.174,south-southwest,7.3,No
2016/08/05,20:10,0.419,0.246,0.436,0.399,0.375,0.206,0.174,south-southwest,5.1,No
2016/08/05,20:20,0.416,0.248,0.434,0.405,0.375,0.205,0.173,south-southwest,5.2,No
2016/08/05,20:30,0.423,0.249,0.434,0.401,0.373,0.204,0.176,south-southwest,4.7,No
2016/08/05,20:40,0.423,0.248,0.439,0.400,0.370,0.205,0.175,south-southwest,5.6,No
2016/08/05,20:50,0.420,0.247,0.439,0.397,0.369,0.205,0.175,south-southwest,5.5,No
2016/08/05,21:00,0.418,0.247,0.438,0.398,0.372,0.205,0.175,south-southwest,5.7,No
2016/08/05,21:10,0.418,0.249,0.433,0.402,0.376,0.204,0.176,south-southwest,4.8,No
2016/08/05,21:20,0.424,0.247,0.433,0.404,0.373,0.205,0.176,south-southwest,4.1,No
2016/08/05,21:30,0.423,0.247,0.436,0.399,0.372,0.207,0.176,southwest,4.1,No
2016/08/05,21:40,0.421,0.247,0.441,0.397,0.369,0.206,0.175,southwest,3.6,No
2016/08/05,21:50,0.417,0.249,0.439,0.398,0.373,0.205,0.175,southwest,3.6,No
2016/08/05,22:00,0.421,0.248,0.434,0.402,0.376,0.205,0.176,southwest,3.1,No
2016/08/05,22:10,0.424,0.248,0.434,0.403,0.375,0.206,0.176,southwest,3.5,No
2016/08/05,22:20,0.424,0.248,0.437,0.399,0.372,0.206,0.175,southwest,3.4,No
2016/08/05,22:30,0.419,0.249,0.444,0.397,0.370,0.205,0.175,west-southwest,2.9,No
2016/08/05,22:40,0.418,0.250,0.441,0.399,0.371,0.206,0.176,west-southwest,2.5,No
2016/08/05,22:50,0.424,0.248,0.435,0.402,0.377,0.207,0.177,west-northwest,1.8,No
2016/08/05,23:00,0.422,0.249,0.433,0.402,0.375,0.206,0.176,west-southwest,1.4,No
2016/08/05,23:10,0.423,0.251,0.439,0.399,0.372,0.205,0.174,west-southwest,1.3,No
2016/08/05,23:20,0.420,0.250,0.442,0.397,0.371,0.205,0.177,west-northwest,1.3,No
2016/08/05,23:30,0.422,0.249,0.439,0.404,0.375,0.207,0.177,-,CALM,No
2016/08/05,23:40,0.425,0.249,0.436,0.402,0.377,0.205,0.176,north,0.9,No
2016/08/05,23:50,0.423,0.249,0.434,0.401,0.374,0.205,0.176,north,1.5,No
